Find Starlink 36227

NORAD ID: 67095 Int'l Des: 2025-298 Owner: SPXS Country: US Constellation: starlink operational
LEOCIRCULAR

現在のビュー

3D地球を読み込み中...

About Starlink 36227

Starlink 36227 (NORAD 67095) is a starlink constellation satellite (v2 mini) launched Dec 14, 2025 by SPXS of US. It operates in LEO, CIRCULAR orbit with a mass of 575.00 kg.

Starlink 36227について

説明を読み込み中...

次回通過

Passes for default location (London). Set your location on the main map for personalized predictions.

高度履歴

Loading altitude history...

軌道要素

1 67095U 25298W 26194.83715161 .00002107 00000-0 18427-3 0 9992
2 67095 70.0009 56.3709 0002878 265.7629 94.3202 14.98335481 32110
Epoch: Jul 13, 2026 • Age: 9 hours

現在のステータス

高度 574.2 km
遠地点 / 近地点 N/A
速度 7.57 km/s
衛星直下点 0.60°N, 130.35°W
打ち上げ日 Dec 14, 2025
運用期間 0.5 years
タイプ internet

技術仕様

分類 Payload
質量 575.00 kg
乾燥質量 530.00 kg
総質量 575.00 kg
長さ 0.30 m
直径 4.10 m
スパン 29.00 m
形状 Box + pan
製造者 SPXS
バスタイプ Starlink V2MO
フェーズステータス In Orbit
所有者/国 SPXS/US

Most Searched